Location: Little Chesterford
(52.0500°N, 0.1833°E)
Time: 19:59:44
(UTC+00:00)

ADEOS - Pass Details

Date: 26 September 2023
Orbit: 792 x 792 km, 98.9° (Epoch: 09 December)

Event Time Altitude Azimuth Distance (km) Brightness Sun altitude
Rises 18:33:07 0° 177° (S) 3,280 6.7 -7.6°
Reaches altitude 10° 18:35:30 10° 182° (S) 2,355 6.0 -8.0°
Maximum altitude 18:40:34 53° 259° (W) 969 4.5 -8.7°
Drops below altitude 10° 18:45:42 10° 337° (NNW) 2,372 6.5 -9.5°
Sets 18:48:06 0° 342° (NNW) 3,306 7.2 -9.9°
